Flag for U.S.A. Weather past 2 weeks in Key West, Florida, U.S.A.

Now
69 °F

Sunny.


Feels Like: 69 °F
Forecast: 62 / 72 °F
Wind: 12 mph from Northeast

Location: Key West International Airport

Current Time: Jan 29, 2015 at 12:14:57 PM

Latest Report: Jan 29, 2015 at 11:53 AM


Visibility: 10 mi

Pressure: 30.24 "Hg

Humidity: 63%

Dew point: 56 °F

Location of Key WestLocation

Historic Weather in Key West — Graph

°F

Key West temperature yesterday

Maximum temperature yesterday: 67 °F (at 12:53 AM)
Minimum temperature yesterday: 61 °F (at 6:53 PM)
Average temperature yesterday: 65 °F

Past Weeks' High & Low Weather Summary

 TemperatureHumidityPressure
High79 °F (Jan 23, 11:53 AM)100% (Jan 21, 6:53 PM)30.25 "Hg (Jan 21, 6:53 PM)
Low60 °F (Jan 29, 12:53 AM)47% (Jan 19, 4:53 PM)29.93 "Hg (Jan 24, 3:53 AM)
Average70 °F77%30.07 "Hg
* Reported Jan 14 10:53 AM — Jan 29 10:53 AM, Key West, Weather by CustomWeather, © 2014

Note: Actual official high and low records may vary slightly from our data, if they occured in-between our weather recording intervals... More about our weather records

Advertising

Key West weather history for previous 24 hours

 ConditionsComfort  
Time TempWeatherWind HumidityBarometerVisibility
10:53 AM
Jan 29
67 °FSunny.13 mph73%30.25 "Hg10 mi
9:53 AM65 °FSunny.14 mph76%30.25 "Hg10 mi
8:53 AM63 °FSunny.13 mph81%30.23 "Hg10 mi
7:53 AM61 °FPassing clouds.9 mph83%30.22 "Hg10 mi
6:53 AM60 °FPassing clouds.13 mph83%30.20 "Hg10 mi
5:53 AM60 °FClear.12 mph80%30.19 "Hg10 mi
4:53 AM60 °FClear.14 mph75%30.18 "Hg10 mi
3:53 AM61 °FClear.14 mph65%30.17 "Hg10 mi
2:53 AM60 °FClear.9 mph62%30.17 "Hg10 mi
1:53 AM60 °FClear.8 mph60%30.19 "Hg10 mi
12:53 AM60 °FClear.7 mph52%30.19 "Hg10 mi
11:53 PM
Jan 28
61 °FClear.8 mph54%30.19 "Hg10 mi
10:53 PM62 °FClear.9 mph50%30.21 "Hg10 mi
9:53 PM62 °FClear.8 mph58%30.20 "Hg10 mi
8:53 PM62 °FClear.7 mph58%30.19 "Hg10 mi
7:53 PM62 °FClear.6 mph58%30.18 "Hg10 mi
6:53 PM61 °FClear.8 mph62%30.16 "Hg10 mi
5:53 PM63 °FSunny.10 mph58%30.16 "Hg10 mi
4:53 PM65 °FSunny.14 mph52%30.15 "Hg10 mi
3:53 PM65 °FSunny.12 mph52%30.14 "Hg10 mi
2:53 PM66 °FSunny.14 mph50%30.14 "Hg10 mi
1:53 PM66 °FSunny.12 mph47%30.14 "Hg10 mi
12:53 PM66 °FSunny.12 mph49%30.17 "Hg10 mi
Weather by CustomWeather, © 2014

See weather overviewHow to use our weather pages